#timestamp,LO_Frequency,Hit,StdDev 
1508205615.4,286047003.2,N
1508205635.3,286047003.5,N
1508205655.1,286047002.8,N
1508205656.0,286047002.8,N
1508205675.8,286046998.3,N
1508205695.6,286046999.6,N
1508205715.5,286046997.6,N
1508205735.3,286046995.8,N
1508205755.1,286046993.7,N
1508205775.9,286046998.3,N
1508205795.7,286046998.1,N
1508205815.5,286047001.0,N
1508205835.4,286047000.1,N
1508205855.2,286047002.2,N
1508205875.0,286047000.1,N
1508205875.9,286047000.1,N
1508205895.8,286047000.7,N
1508205915.6,286047000.8,N
1508205935.4,286046999.5,N
1508205955.3,286046998.7,N
1508205975.1,286046997.2,N
1508205976.0,286046997.2,N
1508205995.8,286046998.1,N
1508206015.7,286047000.8,N
1508206035.5,286047001.0,N
1508206055.3,286047001.0,N
1508206075.2,286047001.5,N
1508206095.9,286047004.4,N
1508206115.7,286046999.7,N
1508206135.5,286047004.4,N
1508206155.4,286047001.7,N
1508206175.2,286047002.5,N
1508206195.0,286047001.0,N
1508206195.9,286047001.0,N
1508206215.8,286047002.0,N
1508206235.6,286046998.9,N
1508206255.4,286046999.8,N
1508206275.3,286047000.5,N
1508206295.1,286046996.8,N
1508206315.8,286047000.8,N
1508206335.7,286046998.1,N
1508206355.5,286046999.8,N
1508206375.3,286047004.1,N
1508206395.2,286046999.9,N
1508206415.9,286047001.1,N
1508206435.7,286047002.7,N
1508206455.6,286047004.0,N
1508206475.4,286046998.1,N
1508206495.2,286047003.8,N
1508206515.1,286046999.1,N
1508206516.0,286046999.1,N
1508206535.8,286046999.3,N
1508206555.6,286047000.3,N
1508206575.4,286046998.7,N
1508206595.3,286047000.7,N
1508206615.1,286046999.2,N
1508206635.8,286046998.3,N
1508206655.7,286046999.7,N
1508206675.5,286047001.3,N
1508206695.3,286047004.4,N
1508206715.2,286047000.0,N
1508206735.9,286046997.0,N
1508206755.7,286046997.4,N
1508206775.6,286046996.7,N
1508206795.4,286046999.4,N
1508206815.2,286046998.6,N
1508206835.1,286047000.1,N
1508206836.0,286047000.1,N
1508206855.8,286046998.5,N
1508206875.6,286046997.7,N
1508206895.5,286047000.4,N
1508206915.3,286046999.0,N
1508206935.1,286046997.1,N
1508206955.9,286046995.8,N
1508206975.7,286046999.6,N
1508206995.5,286047002.5,N
1508207015.3,286047003.2,N
1508207035.2,286047007.4,Y
1508207055.0,286047004.5,P
1508207055.9,286047004.5,N
1508207075.8,286047007.6,P
1508207095.6,286047007.8,N
1508207115.4,286047012.1,Y
1508207135.3,286047007.2,P
1508207155.1,286047007.5,P
1508207156.0,286047007.5,P
1508207175.8,286047007.0,Y
1508207195.7,286046999.1,P
1508207215.5,286046999.4,N
1508207235.3,286047000.1,N
1508207255.2,286047000.2,N
1508207275.9,286046998.3,N
1508207295.7,286047004.3,N
1508207315.6,286047002.2,N
1508207335.4,286047004.4,N
1508207355.2,286047002.1,N
1508207375.0,286047002.4,N
1508207375.9,286047002.4,N
1508207395.8,286046999.3,N
1508207415.6,286046998.9,N
1508207435.4,286046999.6,N
1508207455.3,286046995.0,N
1508207475.1,286047000.6,N
1508207495.8,286047001.2,N
1508207515.7,286046995.1,N
1508207535.5,286046999.0,N
1508207555.3,286047001.0,N
1508207575.2,286046996.6,N
1508207595.9,286046998.5,N
1508207615.7,286046999.4,N
1508207635.6,286046998.0,N
1508207655.4,286046993.3,N
1508207675.2,286046994.9,N
1508207695.1,286046995.2,N
1508207696.0,286046995.2,N
1508207715.8,286046997.3,N
1508207735.6,286046994.1,N
1508207755.4,286046994.5,N
1508207775.3,286046999.1,N
1508207795.1,286046999.6,N
1508207815.8,286046996.8,N
1508207835.7,286046997.8,N
1508207855.5,286046999.4,N
1508207875.3,286046997.6,N
1508207895.2,286046995.4,N
1508207915.0,286046994.8,N
1508207915.9,286046994.8,N
1508207935.7,286046994.4,N
1508207955.6,286046992.3,Y
1508207975.4,286046995.7,P
1508207995.2,286046990.2,P
1508208015.1,286046992.8,N
1508208016.0,286046992.8,N
1508208035.8,286046997.6,N
1508208055.6,286047002.6,N
1508208075.5,286046996.9,N
1508208095.3,286046997.8,N
1508208115.1,286046996.8,N
1508208135.9,286046995.5,N
1508208155.7,286046996.1,N
1508208175.5,286046995.2,N
1508208195.4,286046995.3,N
1508208215.2,286046993.4,N
1508208235.0,286046993.4,N
1508208235.9,286046993.4,N
1508208255.8,286046992.3,N
1508208275.6,286046995.9,N
1508208295.4,286046995.9,N
1508208315.2,286046997.4,N
1508208335.1,286046997.6,N
1508208336.0,286046997.6,N
1508208355.8,286046995.1,N
1508208375.6,286046997.1,N
1508208395.5,286046996.6,N
1508208415.3,286047000.6,N
1508208435.1,286046998.1,N
1508208455.9,286046998.7,N
1508208475.7,286047002.8,N
1508208495.5,286047002.8,N
1508208515.4,286047001.9,N
1508208535.2,286047001.7,N
1508208555.0,286047005.2,N
1508208555.9,286047005.2,N
1508208575.8,286047004.7,N
1508208595.6,286047005.2,N
1508208615.4,286047007.4,N
1508208635.3,286047007.6,N
1508208655.1,286047004.3,N
1508208656.0,286047004.3,N
1508208675.8,286047003.6,N
1508208695.7,286047003.3,N
1508208715.5,286047005.5,N
1508208735.3,286047003.1,N
1508208755.2,286047002.9,N
1508208775.9,286047003.4,N
1508208795.7,286047000.6,N
1508208815.5,286047002.7,N
1508208835.4,286046998.6,N
1508208855.2,286047004.1,N
1508208875.0,286047002.7,N
1508208875.9,286047002.7,N
1508208895.8,286047004.3,N
1508208915.6,286047004.2,N
1508208935.4,286047005.5,N
1508208955.3,286047007.2,Y
1508208975.1,286047007.6,P
1508208995.8,286047008.7,P
1508209015.7,286047009.1,P
1508209035.5,286047009.7,Y
1508209055.4,286047002.6,P
1508209075.2,286047001.5,N
1508209095.0,286047004.4,N
1508209095.9,286047004.4,N
1508209115.8,286047000.7,N
1508209135.6,286046998.2,N
1508209155.4,286047004.0,N
1508209175.3,286046998.6,N
1508209195.1,286046996.6,N
1508209196.0,286046996.6,N
